Regional Weather Roundup
Issued by NWS

Home | Current Version | Previous Version | Text Only | Print | Product List | Glossary Off
Versions: 1 2 3 4 5 6 7 8 9 10 11 12 13 14 15 16 17 18 19 20 21 22 23 24 25 26 27 28 29 30 31 32 33 34 35 36 37 38 39 40 41 42 43 44 45 46 47 48 49 50

000
ASUS43 KOAX 082210
RWRNE

WEATHER ROUNDUP FOR NEBRASKA
NATIONAL WEATHER SERVICE OMAHA NE
400 PM CST THU DEC 08 2016

NOTES: SATELLITE DATA IS BEING USED TO AUGMENT CLOUD COVER ABOVE
       12000 FEET.
       "FAIR" INDICATES FEW OR NO CLOUDS BELOW 12,000 FEET WITH NO
       SIGNIFICANT WEATHER AND/OR OBSTRUCTIONS TO VISIBILITY.

  * THESE STATIONS DO NOT REPORT WEATHER SUCH AS RAIN...SNOW OR FOG.

NEZ001>004-019>022-054>056-082300-
NEBRASKA PANHANDLE

CITY           SKY/WX    TMP DP  RH WIND       PRES   REMARKS
SCOTTSBLUFF    SUNNY     17   0  47 E9        30.41S WCI   6
ALLIANCE       SUNNY     18  -2  41 CALM      30.41F
CHADRON        SUNNY     15  -3  44 NE8       30.47F WCI   4
KIMBALL        SUNNY     14   6  71 S10       30.34F WCI   1
SIDNEY         SUNNY     15   1  53 S7        30.41S WCI   5
$$

NEZ057>060-069>072-079>082-082300-
SOUTHWEST NEBRASKA

CITY           SKY/WX    TMP DP  RH WIND       PRES   REMARKS
NORTH PLATTE   SUNNY     22  -2  35 W5        30.54S WCI  16
IMPERIAL       SUNNY     18   0  45 CALM      30.51S
LEXINGTON      SUNNY     23   0  37 NW6       30.57S WCI  16
MCCOOK         SUNNY     19   4  51 CALM      30.57F
OGALLALA       SUNNY     19   2  47 CALM      30.50S
$$

NEZ005>010-023>029-035>040-094-082300-
NORTH CENTRAL NEBRASKA

CITY           SKY/WX    TMP DP  RH WIND       PRES   REMARKS
VALENTINE      CLEAR     14  -3  47 NW8       30.56S WCI   3
AINSWORTH      CLEAR     15   0  50 NW8       30.55S WCI   4
BROKEN BOW     CLEAR     21  -1  38 NW10      30.55S WCI  10
O`NEILL        CLEAR     19   2  47 NW16      30.59R WCI   5
ORD            CLEAR     22  -1  36 NW8       30.58R WCI  12
THEDFORD       CLEAR     19  -2  39 NW5       30.53S WCI  12
$$

NEZ041-046>049-061>064-073>077-083>087-082300-
SOUTH CENTRAL NEBRASKA

CITY           SKY/WX    TMP DP  RH WIND       PRES   REMARKS
GRAND ISLAND   CLEAR     23   5  46 NW10      30.61R WCI  12
AURORA         CLEAR     24   4  42 N9        30.60S WCI  14
HASTINGS       CLEAR     24   4  42 N10       30.61R WCI  14
HEBRON         CLEAR     25   7  46 N9        30.63S WCI  16
HOLDREGE       SUNNY     23   2  40 NW5       30.58S WCI  17
KEARNEY *      CLEAR     23   1  39 N7        30.59S WCI  15
YORK           CLEAR     25   7  46 N8        30.61R WCI  16
$$

NEZ011>018-030>034-042>045-082300-
NORTHEAST NEBRASKA

CITY           SKY/WX    TMP DP  RH WIND       PRES   REMARKS
NORFOLK        CLEAR     21   4  47 NW15      30.59R WCI   8
ALBION         CLEAR     22   3  43 NW12      30.59S WCI  11
BLAIR          CLEAR     24  10  54 NW14G23   30.58R WCI  12
FREMONT        CLEAR     24   8  51 NW15      30.61R WCI  11
TEKAMAH        CLEAR     24   7  48 NW13G23   30.61R WCI  12
WAYNE          CLEAR     21   7  53 NW15G21   30.59R WCI   8
$$

NEZ050>053-065>068-078-088>093-082300-
SOUTHEAST NEBRASKA

CITY           SKY/WX    TMP DP  RH WIND       PRES   REMARKS
LINCOLN        CLEAR     26   8  46 NW14      30.64R WCI  14
OMAHA EPPLEY   PTCLDY    25   7  46 NW17      30.61R WCI  12
BEATRICE       CLEAR     26   9  49 NW13      30.62R WCI  15
FALLS CITY     CLEAR     25   9  50 NW12      30.62R WCI  14
NEBRASKA CITY  CLEAR     24   5  43 NW12      30.61R WCI  13
PLATTSMOUTH    CLEAR     24   5  44 NW14      30.60S WCI  12
$$

NEZ044-045-051>053-067-082300-
OMAHA AREA

CITY           SKY/WX    TMP DP  RH WIND       PRES   REMARKS
OMAHA EPPLEY   PTCLDY    25   7  46 NW17      30.61R WCI  12
BLAIR          CLEAR     24  10  54 NW14G23   30.58R WCI  12
FREMONT        CLEAR     24   8  51 NW15      30.61R WCI  11
MILLARD        CLEAR     26   9  48 NW15      30.61S WCI  14
OFFUTT AFB     CLEAR     24   8  49 NW15      30.61R WCI  12
PLATTSMOUTH    CLEAR     24   5  44 NW14      30.60S WCI  12
WAHOO          FAIR      25   8  49 NW14      30.61R WCI  13
$$




USA.gov is the U.S. government's official web portal to all federal, state and local government web resources and services.